TimeEDT,TemperatureF,Dew PointF,Humidity,Sea Level PressureIn,VisibilityMPH,Wind Direction,Wind SpeedMPH,Gust SpeedMPH,PrecipitationIn,Events,Conditions,WindDirDegrees,DateUTC
12:15 AM,74.3,65.7,74,30.01,10.0,South,3.5,-,N/A,,Scattered Clouds,190,2013-08-22 04:15:00
12:34 AM,74.5,66.0,75,30.01,10.0,South,5.8,-,N/A,,Scattered Clouds,190,2013-08-22 04:34:00
12:55 AM,74.7,66.2,75,30.01,10.0,SSW,3.5,-,N/A,,Overcast,200,2013-08-22 04:55:00
1:15 AM,75.4,65.8,72,30.01,10.0,SSW,8.1,-,N/A,,Overcast,210,2013-08-22 05:15:00
1:35 AM,75.7,65.8,71,30.01,10.0,WSW,5.8,-,N/A,,Overcast,240,2013-08-22 05:35:00
1:55 AM,73.4,68.7,85,30.02,5.0,WSW,19.6,28.8,N/A,Rain,Heavy Rain,250,2013-08-22 05:55:00
2:15 AM,72.0,69.1,91,30.02,7.0,West,12.7,20.7,N/A,Rain,Light Rain,260,2013-08-22 06:15:00
2:35 AM,71.4,67.5,87,30.01,10.0,West,5.8,-,N/A,,Mostly Cloudy,260,2013-08-22 06:35:00
2:55 AM,71.1,66.9,87,30.01,10.0,West,3.5,-,N/A,,Mostly Cloudy,270,2013-08-22 06:55:00
3:15 AM,70.5,65.8,85,29.96,10.0,ESE,5.8,-,N/A,,Scattered Clouds,110,2013-08-22 07:15:00
3:35 AM,69.1,66.6,92,29.93,10.0,East,6.9,-,N/A,,Scattered Clouds,100,2013-08-22 07:35:00
3:55 AM,69.8,66.2,88,29.93,10.0,ESE,3.5,-,N/A,,Scattered Clouds,120,2013-08-22 07:55:00
4:14 AM,69.8,66.6,89,29.96,10.0,Calm,Calm,-,N/A,,Scattered Clouds,0,2013-08-22 08:14:00
4:35 AM,68.5,66.6,93,29.99,10.0,WSW,8.1,-,N/A,,Clear,250,2013-08-22 08:35:00
4:55 AM,69.3,66.4,91,30.01,10.0,West,6.9,-,N/A,,Clear,270,2013-08-22 08:55:00
5:14 AM,69.1,66.0,90,30.01,10.0,West,6.9,-,N/A,,Clear,260,2013-08-22 09:14:00
5:35 AM,69.3,65.5,88,30.01,10.0,West,5.8,-,N/A,,Clear,270,2013-08-22 09:35:00
5:55 AM,68.9,65.1,88,30.02,10.0,Calm,Calm,-,N/A,,Clear,0,2013-08-22 09:55:00
6:15 AM,68.2,64.6,88,30.03,10.0,NW,3.5,-,N/A,,Clear,310,2013-08-22 10:15:00
6:35 AM,67.3,63.9,89,30.03,10.0,West,3.5,-,N/A,,Clear,280,2013-08-22 10:35:00
6:55 AM,66.4,64.0,92,30.04,10.0,NW,4.6,-,N/A,,Clear,320,2013-08-22 10:55:00
7:15 AM,66.7,64.0,91,30.04,10.0,WNW,5.8,-,N/A,,Clear,300,2013-08-22 11:15:00
7:35 AM,66.9,64.4,92,30.05,10.0,West,6.9,-,N/A,,Clear,280,2013-08-22 11:35:00
7:55 AM,67.1,64.6,92,30.05,10.0,WNW,3.5,-,N/A,,Clear,290,2013-08-22 11:55:00
8:15 AM,67.6,65.3,92,30.05,10.0,West,5.8,-,N/A,,Clear,270,2013-08-22 12:15:00
8:35 AM,68.9,65.7,89,30.05,10.0,West,5.8,-,N/A,,Clear,260,2013-08-22 12:35:00
8:55 AM,70.2,65.7,86,30.05,10.0,WSW,6.9,-,N/A,,Clear,250,2013-08-22 12:55:00
9:15 AM,71.8,65.3,80,30.05,10.0,WSW,5.8,-,N/A,,Clear,250,2013-08-22 13:15:00
9:34 AM,73.6,65.3,75,30.05,10.0,WSW,6.9,-,N/A,,Clear,250,2013-08-22 13:34:00
9:55 AM,75.4,64.6,69,30.04,10.0,West,8.1,-,N/A,,Clear,280,2013-08-22 13:55:00
10:15 AM,75.7,64.6,68,30.04,10.0,WNW,6.9,-,N/A,,Clear,290,2013-08-22 14:15:00
10:34 AM,76.5,64.8,67,30.04,10.0,West,6.9,-,N/A,,Clear,270,2013-08-22 14:34:00
10:55 AM,77.7,64.2,63,30.05,10.0,West,6.9,-,N/A,,Clear,270,2013-08-22 14:55:00
11:15 AM,78.3,64.4,62,30.06,10.0,WNW,4.6,-,N/A,,Clear,290,2013-08-22 15:15:00
11:35 AM,78.6,63.9,60,30.06,10.0,SW,5.8,-,N/A,,Clear,230,2013-08-22 15:35:00
11:55 AM,78.8,64.4,61,30.06,10.0,WSW,8.1,-,N/A,,Clear,250,2013-08-22 15:55:00
12:15 PM,78.8,65.1,63,30.05,10.0,SW,9.2,-,N/A,,Clear,220,2013-08-22 16:15:00
12:35 PM,79.7,63.9,58,30.05,10.0,West,8.1,-,N/A,,Clear,260,2013-08-22 16:35:00
12:55 PM,80.6,64.4,58,30.05,10.0,West,4.6,-,N/A,,Clear,280,2013-08-22 16:55:00
1:14 PM,81.0,64.0,56,30.05,10.0,West,8.1,-,N/A,,Clear,270,2013-08-22 17:14:00
1:35 PM,82.6,63.9,53,30.04,10.0,NNW,9.2,-,N/A,,Clear,330,2013-08-22 17:35:00
1:55 PM,81.9,63.3,53,30.04,10.0,West,8.1,-,N/A,,Clear,270,2013-08-22 17:55:00
2:14 PM,82.0,61.9,50,30.04,10.0,West,8.1,-,N/A,,Clear,270,2013-08-22 18:14:00
2:35 PM,82.9,62.6,50,30.04,10.0,West,8.1,-,N/A,,Clear,270,2013-08-22 18:35:00
2:55 PM,83.1,63.0,50,30.04,10.0,West,9.2,-,N/A,,Clear,270,2013-08-22 18:55:00
3:14 PM,82.9,63.1,51,30.04,10.0,West,6.9,-,N/A,,Clear,270,2013-08-22 19:14:00
3:35 PM,82.2,64.4,55,30.04,10.0,WNW,9.2,-,N/A,,Scattered Clouds,290,2013-08-22 19:35:00
3:55 PM,81.1,65.1,58,30.03,10.0,West,6.9,-,N/A,,Scattered Clouds,280,2013-08-22 19:55:00
4:15 PM,82.0,65.1,56,30.02,10.0,WNW,8.1,-,N/A,,Scattered Clouds,300,2013-08-22 20:15:00
4:35 PM,81.0,65.7,60,30.02,10.0,NW,4.6,-,N/A,,Clear,310,2013-08-22 20:35:00
4:55 PM,80.6,66.0,61,30.03,10.0,NW,6.9,-,N/A,,Clear,310,2013-08-22 20:55:00
5:14 PM,80.1,66.2,62,30.03,10.0,WNW,6.9,-,N/A,,Clear,290,2013-08-22 21:14:00
5:35 PM,80.1,66.4,63,30.03,10.0,WNW,6.9,-,N/A,,Clear,290,2013-08-22 21:35:00
5:55 PM,79.3,65.7,63,30.02,10.0,WNW,5.8,-,N/A,,Clear,290,2013-08-22 21:55:00
6:15 PM,79.0,66.4,65,30.02,10.0,West,8.1,-,N/A,,Clear,270,2013-08-22 22:15:00
6:35 PM,78.8,66.6,66,30.02,10.0,West,6.9,-,N/A,,Clear,270,2013-08-22 22:35:00
6:54 PM,78.3,67.5,69,30.03,10.0,West,9.2,-,N/A,,Clear,260,2013-08-22 22:54:00
7:15 PM,77.5,67.6,71,30.02,10.0,West,9.2,-,N/A,,Scattered Clouds,270,2013-08-22 23:15:00
7:35 PM,77.0,67.8,73,30.03,10.0,West,6.9,-,N/A,,Scattered Clouds,270,2013-08-22 23:35:00
7:55 PM,76.1,68.4,77,30.03,10.0,West,9.2,-,N/A,,Clear,280,2013-08-22 23:55:00
8:15 PM,75.6,69.1,80,30.03,10.0,West,8.1,-,N/A,,Clear,280,2013-08-23 00:15:00
8:34 PM,74.7,69.1,83,30.03,10.0,WNW,5.8,-,N/A,,Clear,290,2013-08-23 00:34:00
8:55 PM,74.1,69.1,84,30.04,10.0,WNW,5.8,-,N/A,,Clear,290,2013-08-23 00:55:00
9:15 PM,73.6,68.9,85,30.04,10.0,NW,4.6,-,N/A,,Clear,310,2013-08-23 01:15:00
9:34 PM,73.0,68.7,86,30.04,10.0,WNW,3.5,-,N/A,,Clear,300,2013-08-23 01:34:00
9:55 PM,72.7,68.5,87,30.05,10.0,WNW,4.6,-,N/A,,Clear,300,2013-08-23 01:55:00
10:15 PM,72.1,68.5,88,30.05,10.0,WNW,4.6,-,N/A,,Clear,300,2013-08-23 02:15:00
10:35 PM,71.8,68.5,89,30.06,10.0,NW,5.8,-,N/A,,Clear,320,2013-08-23 02:35:00
10:55 PM,71.4,68.4,90,30.06,10.0,NW,5.8,-,N/A,,Clear,320,2013-08-23 02:55:00
11:15 PM,70.7,68.0,91,30.07,10.0,NNW,6.9,-,N/A,,Clear,340,2013-08-23 03:15:00
11:35 PM,69.8,66.7,90,30.07,10.0,North,6.9,-,N/A,,Clear,360,2013-08-23 03:35:00
11:55 PM,68.4,64.4,87,30.08,10.0,North,5.8,-,N/A,,Clear,10,2013-08-23 03:55:00